Location: Campbell Lake
(32.1204°N, 97.6289°W)
Time: 08:11:51
(UTC+00:00)

ARIANE 6 FM1 Upper Stage - Pass Details

Date: 16 December 2025
Orbit: 522 x 610 km, 62.0° (Epoch: 14 January)

Event Time Altitude Azimuth Distance (km) Brightness Sun altitude
Exits shadow 11:17:37 13° 182° (S) 1,622 5.1 -26.1°
Maximum altitude 11:20:52 37° 117° (ESE) 845 4.0 -25.4°
Drops below altitude 10° 11:24:35 10° 49° (NE) 1,783 5.6 -24.7°
Sets 11:26:51 0° 41° (NE) 2,666 6.5 -24.2°
